Regional Weather Roundup
Issued by NWS Newport/Morehead, NC

Current Version | Previous Version | Text Only | Print | Product List | Glossary On
Versions: 1 2 3 4 5 6 7 8 9 10 11 12 13 14 15 16 17 18 19 20 21 22 23 24 25 26 27 28 29 30 31 32 33 34 35 36 37 38 39 40 41 42 43 44 45 46 47 48 49 50
338
ASUS42 KMHX 251813
RWRMHX
WEATHER ROUNDUP FOR EASTERN NORTH CAROLINA
NATIONAL WEATHER SERVICE NEWPORT/MOREHEAD CITY NC
200 PM EDT THU AUG 25 2016

NOTE: "FAIR" INDICATES FEW OR NO CLOUDS BELOW 12,000 FEET
WITH NO SIGNIFICANT WEATHER AND/OR OBSTRUCTIONS TO VISIBILITY

NCZ015>017-031-032-045>047-102-103-251900-
NORTH COAST

CITY           SKY/WX    TMP DP  RH WIND       PRES   REMARKS
EDENTON        SUNNY     87  62  42 S5        30.14F
ELIZABETH CITY SUNNY     86  65  49 MISG      30.13F
KITTY HAWK     CLEAR     88  71  56 SE7       30.14F
MANTEO         SUNNY     83  67  58 SE8       30.15F

$$

NCZ045>047-081-094-103-104-251900-
CENTRAL COAST

CITY           SKY/WX    TMP DP  RH WIND       PRES   REMARKS
FRISCO         SUNNY     85  65  51 VRB5      30.15F

$$

NCZ095-097-098-100-101-251900-
SOUTHERN COAST

CITY           SKY/WX    TMP DP  RH WIND       PRES   REMARKS
BEAUFORT       MOSUNNY   85  66  53 SE8       30.14F
CEDAR ISLAND   NOT AVBL
JACKSONVILLE   MOSUNNY   88  64  44 CALM      30.13F
PINEY ISLAND   NOT AVBL
WILMINGTON     MOSUNNY   85  69  58 SE10      30.13F


$$

NCZ011>013-027>030-043-044-078>080-089-090>093-098-251900-
COASTAL PLAIN

CITY           SKY/WX    TMP DP  RH WIND       PRES   REMARKS
AHOSKIE        SUNNY     84  69  59 SE3       30.13F
CLINTON        MOSUNNY   86  70  59 NE3       30.14F
ELIZABETHTOWN  CLOUDY    87  67  51 CALM      30.14F
GOLDSBORO      MOSUNNY   88  69  53 CALM      30.12F
GREENVILLE     MOSUNNY   90  68  48 SW6       30.15F
HAVELOCK       PTSUNNY   86  67  52 E5        30.15F
KENANSVILLE    CLOUDY    86  68  54 E3        30.14F
KINSTON        MOSUNNY   86  66  51 E5        30.15F
NEW BERN       PTSUNNY   87  67  51 CALM      30.15F
RICHLANDS      PTSUNNY   88  68  51 CALM      30.14F
ROCKY MOUNT    SUNNY     87  67  51 W5        30.14F
WASHINGTON     PTSUNNY   83  67  58 S5        30.14F
WHITEVILLE     MOSUNNY   87  67  51 CALM      30.13F

$$

AMZ130-135-150-152-154-156-158-170-250-252-270-ANZ085-086-088-633-658-670-251900-
MARINE OBSERVATIONS

STATION/POSITION TIME  TEMP    WIND        PRES    WAVE   SWELL
                       AIR SEA DIR/SP/G            HT/PER HT/PER
                 (UTC) (F)     (DEG/KT/KT) (MB)    (FT/S) (FT/S)
CHESAPEAKE LIGHT NOT AVBL
64 E VA BEACH    1750   79 82  310/  2/  4 1020.6    3/10   3/10
DUCK             1700   80 78  120/  7/  9 1020.8
2 E DUCK         1711      78                N/A     3/10   2/11
OREGON INLET     1700   81 79   70/  5/  8 1021.5
13E OREGON INLT  1700      81                N/A     3/10   2/10
HATTERAS CG      1700   80 79  360/  6/  7 1021.3
DIAMOND BUOY     1750   81 85   50/  6/  8 1021.0    3/10   3/10
CAPE LOOKOUT     1800   81      80/  6/  7 1020.4
BEAUFORT LAB     1700   82 80  110/  9/ 12 1020.8
30 SE NEW RVR IN 1708   82 84   50/  8/ 14 1021.2
30 SE NEW RVR IN 1725      84                N/A     3/10
27 SE WRIGHTSVLE 1708   82 83   60/  8/ 12 1021.2
5 SE WRIGHTSVLE  1708   82 83   90/  8/ 12 1022.0
225 S CAPE HAT   1750   82 84   50/ 14/ 17 1018.6    5/ 8   3/ 8
41 SE CHARLESTON 1750   82 84   40/ 10/ 10 1019.8    3/10   3/10

$$




USA.gov is the U.S. government's official web portal to all federal, state and local government web resources and services.